[[{"header":{"parameterUnit":"m.s-1","parameterCategory":1,"la1":30.2991,"la2":30.254,"lo1":-89.0895,"lo2":-89.0444,"dy":0.0017,"dx":0.0017,"nx":28,"ny":28,"refTime":"2024-02-14T03:00:00:Z","depth":0,"parameterNumber":2,"parameterNumberName":"U-component_of_WINDS"},"data":[0,0,0,0,0,0,0,0,0,0,0,0,0,0,0,0,0,0,0,0,0,0,0,0,0,0,0,0,0,0,0,0,0,0,0,0,0,0,0,0,0,0,0,0,0,0,0,0,0,0,0,0,0,0,0,0,0,0,-3.6797,-3.6797,0,-3.6809,-3.6809,-3.6809,-3.67,-3.6697,-3.6694,-3.6691,-3.6704,-3.6707,-3.671,0,0,0,0,0,0,0,0,0,0,0,0,0,-3.6682,-3.6685,-3.6797,-3.6797,-3.6798,-3.6809,-3.6809,-3.6809,-3.6701,-3.6697,-3.6693,-3.669,-3.6703,-3.6706,-3.671,0,0,0,0,0,0,0,0,0,0,0,0,0,-3.6717,-3.6686,-3.6797,-3.6745,-3.674,-3.6809,-3.6809,-3.6809,-3.6701,-3.6697,-3.6692,-3.6688,-3.6701,-3.6706,-3.671,-3.683,0,0,-3.6725,-3.6727,0,0,0,0,0,0,0,0,-3.6715,-3.6721,-3.6752,-3.6749,-3.6744,-3.6748,-3.6773,-3.6816,-3.6703,-3.6716,-3.6691,-3.6686,-3.6722,-3.6725,-3.6737,-3.683,-3.6831,-3.6725,-3.6728,-3.673,-3.6731,0,0,0,0,0,0,0,-3.6713,-3.672,-3.6802,-3.6753,-3.6748,-3.6721,-3.6721,-3.678,-3.6744,-3.6715,-3.6707,-3.671,-3.6719,-3.6733,-3.6736,-3.6831,-3.6725,-3.6729,-3.6732,-3.6734,-3.7024,-3.7029,0,0,0,0,0,0,-3.6718,-3.6719,-3.6801,-3.6802,-3.6718,-3.6727,-3.6727,-3.6751,-3.6743,-3.6738,-3.6713,-3.6704,-3.6727,-3.6731,-3.6736,-3.6876,-3.673,-3.6734,-3.6737,-3.7019,-3.7025,-3.703,0,0,0,0,0,0,-3.6716,-3.6726,-3.6801,-3.6758,-3.6766,-3.6734,-3.6762,-3.6754,-3.6768,-3.6742,-3.6736,-3.6734,-3.6723,-3.673,-3.6808,-3.6875,-3.6737,-3.6741,-3.7013,-3.7021,-3.7028,-3.7157,0,0,0,0,0,0,-3.6713,-3.6726,-3.6771,-3.676,-3.6769,-3.6872,-3.6766,-3.6757,-3.6776,-3.6764,-3.676,-3.6755,-3.672,-3.6801,-3.6812,-3.6879,-3.6745,-3.7007,-3.7017,-3.7025,-3.7147,-3.7168,-3.7186,0,0,0,0,0,-3.6709,-3.6807,-3.6774,-3.6784,-3.6824,-3.6876,-3.6881,-3.6839,-3.6782,-3.6827,-3.6811,-3.6755,-3.6866,-3.681,-3.6822,-3.6891,-3.7003,-3.7014,-3.7025,-3.7138,-3.7164,-3.7186,0,0,0,0,0,0,-3.6826,-3.6804,-3.6767,-3.6864,-3.6873,-3.6858,-3.6913,-3.6868,-3.6893,-3.6881,-3.6828,-3.6828,-3.6915,-3.691,-3.6848,-3.7007,-3.6924,-3.6938,-3.7006,-3.7031,-3.705,-3.705,-3.6748,0,0,0,0,0,-3.6863,-3.6907,-3.6886,-3.6973,-3.698,-3.6946,-3.6967,-3.6934,-3.6941,-3.6944,-3.6933,-3.6943,-3.6979,-3.7005,-3.7037,-3.7145,-3.7143,-3.7199,-3.7219,-3.7235,-3.7248,-3.7306,-3.7331,-3.7067,-3.7066,-3.7066,0,0,-3.694,-3.6934,-3.6965,-3.6997,-3.6999,-3.7047,-3.695,-3.7004,-3.7038,-3.6952,-3.7025,-3.7018,-3.7024,-3.7119,-3.7159,-3.7118,-3.732,-3.7249,-3.7262,-3.7266,-3.732,-3.7345,-3.7367,-3.7074,-3.7073,-3.7071,0,0,-3.7105,-3.7104,-3.7177,-3.7182,-3.7188,-3.7165,-3.7183,-3.7175,-3.7167,-3.7239,-3.7176,-3.7216,-3.728,-3.7288,-3.73,-3.7469,-3.7419,-3.7481,-3.7584,-3.7642,-3.7662,-3.7681,-3.7742,-3.7764,-3.7494,-3.7494,-3.7494,0,-3.72,-3.7268,-3.7221,-3.728,-3.7296,-3.722,-3.7295,-3.7302,-3.7318,-3.7331,-3.7284,-3.7363,-3.7362,-3.7457,-3.7499,-3.7511,-3.753,-3.7481,-3.7663,-3.7681,-3.7697,-3.7755,-3.7778,-3.7501,-3.7501,-3.75,-3.7499,0,-3.7385,-3.7434,-3.7493,-3.7511,-3.7533,-3.76,-3.7563,-3.7592,-3.7557,-3.7539,-3.7615,-3.7611,-3.7641,-3.7661,-3.7628,-3.7752,-3.7726,-3.7672,-3.7589,-3.7731,-3.7784,-3.7806,-3.7512,-3.751,-3.7507,-3.7505,0,0,-3.7624,-3.7615,-3.7638,-3.7645,-3.7646,-3.7683,-3.7746,-3.7776,-3.7803,-3.7816,-3.7868,-3.7925,-3.7875,-3.7889,-3.7855,-3.7905,-3.8041,-3.7845,-3.7844,-3.7882,-3.8179,-3.8221,-3.8247,-3.8007,-3.8011,-3.8014,-3.8179,0,-3.7786,-3.7893,-3.7853,-3.7963,-3.8008,-3.7937,-3.7992,-3.7999,-3.7984,-3.802,-3.8003,-3.8045,-3.7975,-3.7983,-3.803,-3.8015,-3.81,-3.8002,-3.8056,-3.8058,-3.8058,-3.8274,-3.8318,-3.8474,-3.8199,-3.8203,-3.8205,0,-3.7988,-3.8011,-3.8126,-3.812,-3.8137,-3.8187,-3.8212,-3.8247,-3.8253,-3.8239,-3.8256,-3.8211,-3.8273,-3.819,-3.8275,-3.8209,-3.8229,-3.8225,-3.823,-3.8234,-3.8141,-3.8285,-3.8522,-3.8546,-3.8237,-3.8235,-3.8232,0,-3.8152,-3.8211,-3.8288,-3.8296,-3.8291,-3.8328,-3.8327,-3.8329,-3.835,-3.8372,-3.8385,-3.8414,-3.843,-3.8453,-3.8418,-3.836,-3.8509,-3.8422,-3.8499,-3.8501,-3.8534,-3.8533,-3.8779,-3.8546,-3.8546,-3.8545,-3.8545,0,-3.8337,-3.8411,-3.8361,-3.8409,-3.8489,-3.8442,-3.8523,-3.8515,-3.8517,-3.8562,-3.8502,-3.8545,-3.8496,-3.8535,-3.8508,-3.8583,-3.859,-3.8581,-3.8573,-3.8587,-3.8588,-3.86,-3.8588,-3.8551,-3.855,-3.8549,-3.8548,0,-3.8534,-3.8504,-3.8583,-3.8572,-3.8571,-3.8631,-3.8621,-3.8664,-3.8645,-3.8703,-3.8714,-3.8684,-3.8727,-3.8694,-3.8736,-3.8718,-3.8817,-3.8794,-3.8815,-3.8809,-3.8889,-3.8883,-3.9151,-3.9185,-3.893,-3.8933,-3.8935,0,-3.8655,-3.871,-3.8704,-3.873,-3.8733,-3.8776,-3.8797,-3.8753,-3.8777,-3.8789,-3.8832,-3.8869,-3.8897,-3.8969,-3.8951,-3.8983,-3.896,-3.9052,-3.8965,-3.8977,-3.8963,-3.8961,-3.8966,-3.9071,-3.9074,-3.9076,-3.9078,0,-3.8872,-3.8855,-3.8887,-3.8916,-3.8943,-3.8963,-3.8979,-3.9003,-3.8958,-3.8989,-3.9032,-3.9054,-3.9097,-3.9135,-3.9161,-3.916,-3.9113,-3.9106,-3.9125,-3.9141,-3.9151,-3.9148,-3.8865,-3.91,-3.9098,-3.9096,-3.9095,-3.9094,-3.9035,-3.9081,-3.9085,-3.9124,-3.9131,-3.9147,-3.9187,-3.9174,-3.9209,-3.924,-3.9212,-3.9264,-3.927,-3.93,-3.9305,-3.9345,-3.9307,-3.9336,-3.9343,-3.9351,-3.9363,-3.9145,-3.935,-3.9349,-3.9349,-3.9348,-3.9347,0,-3.925,-3.9249,-3.9285,-3.9309,-3.934,-3.9292,-3.9306,-3.9336,-3.9382,-3.9391,-3.942,-3.947,-3.9507,-3.9493,-3.9526,-3.9561,-3.954,-3.9571,-3.9568,-3.9569,-3.9395,-3.9375,-3.9588,-3.9588,-3.9588,-3.9587,-3.9587,-3.9587,-3.9366,-3.9441,-3.9425,-3.9503,-3.9501,-3.9552,-3.9565,-3.9579,-3.9586,-3.9645,-3.9676,-3.9666,-3.9666,-3.9698,-3.9731,-3.9725,-3.9741,-3.978,-3.9768,-3.9605,-3.9581,-3.9559,-3.954,-3.9784,-3.9784,-3.9939,-3.994,-3.9941]},{"header":{"parameterUnit":"m.s-1","parameterCategory":1,"la1":30.2991,"la2":30.254,"lo1":-89.0895,"lo2":-89.0444,"dy":0.0017,"dx":0.0017,"nx":28,"ny":28,"refTime":"2024-02-14T03:00:00:Z","depth":0,"parameterNumber":3,"parameterNumberName":"V-component_of_WINDS"},"data":[0,0,0,0,0,0,0,0,0,0,0,0,0,0,0,0,0,0,0,0,0,0,0,0,0,0,0,0,0,0,0,0,0,0,0,0,0,0,0,0,0,0,0,0,0,0,0,0,0,0,0,0,0,0,0,0,0,0,-2.1838,-2.1838,0,-2.1872,-2.1872,-2.1873,-2.1849,-2.1847,-2.1846,-2.1845,-2.1879,-2.1881,-2.1883,0,0,0,0,0,0,0,0,0,0,0,0,0,-2.1749,-2.1751,-2.1838,-2.1838,-2.1839,-2.1872,-2.1872,-2.1873,-2.1849,-2.1847,-2.1846,-2.1845,-2.1879,-2.1881,-2.1883,0,0,0,0,0,0,0,0,0,0,0,0,0,-2.1786,-2.1751,-2.1838,-2.1831,-2.183,-2.1872,-2.1872,-2.1873,-2.1849,-2.1847,-2.1846,-2.1844,-2.1878,-2.1881,-2.1883,-2.1934,0,0,-2.1892,-2.1893,0,0,0,0,0,0,0,0,-2.1784,-2.1789,-2.1831,-2.1831,-2.1831,-2.1854,-2.1854,-2.1893,-2.1849,-2.1842,-2.1845,-2.1843,-2.1872,-2.1875,-2.1885,-2.1935,-2.1937,-2.1892,-2.1894,-2.1895,-2.1896,0,0,0,0,0,0,0,-2.1781,-2.1787,-2.1851,-2.1832,-2.1832,-2.1825,-2.1828,-2.1861,-2.1866,-2.1842,-2.1841,-2.1845,-2.1872,-2.1883,-2.1886,-2.1937,-2.1892,-2.1895,-2.1897,-2.1898,-2.2028,-2.203,0,0,0,0,0,0,-2.178,-2.1785,-2.185,-2.1852,-2.1803,-2.1828,-2.1832,-2.1848,-2.1865,-2.1866,-2.1847,-2.1844,-2.1879,-2.1883,-2.1887,-2.1946,-2.1895,-2.1898,-2.19,-2.2027,-2.2029,-2.2031,0,0,0,0,0,0,-2.1778,-2.1786,-2.1849,-2.1818,-2.1826,-2.1831,-2.185,-2.185,-2.1861,-2.1868,-2.1869,-2.1857,-2.1877,-2.1883,-2.1922,-2.1947,-2.1899,-2.1902,-2.2025,-2.2027,-2.203,-2.2065,0,0,0,0,0,0,-2.1775,-2.1785,-2.1805,-2.1819,-2.1828,-2.1884,-2.1852,-2.1852,-2.1866,-2.1863,-2.1878,-2.1879,-2.1877,-2.1918,-2.1925,-2.195,-2.1904,-2.2022,-2.2026,-2.2029,-2.2062,-2.2069,-2.2075,0,0,0,0,0,-2.1772,-2.1813,-2.1806,-2.1814,-2.1853,-2.1885,-2.189,-2.1887,-2.1868,-2.1888,-2.1892,-2.1879,-2.1943,-2.1922,-2.193,-2.1956,-2.2021,-2.2025,-2.2029,-2.2059,-2.2067,-2.2075,0,0,0,0,0,0,-2.1801,-2.1815,-2.1807,-2.1854,-2.1869,-2.1881,-2.1906,-2.1896,-2.1916,-2.1912,-2.1906,-2.191,-2.1951,-2.1957,-2.1934,-2.2005,-2.1979,-2.1985,-2.1999,-2.2007,-2.2014,-2.2011,-2.1907,0,0,0,0,0,-2.1813,-2.184,-2.185,-2.189,-2.1898,-2.1901,-2.1915,-2.1911,-2.1926,-2.1932,-2.1939,-2.1954,-2.1977,-2.1993,-2.2014,-2.2063,-2.2065,-2.2084,-2.2091,-2.2096,-2.2101,-2.2126,-2.2134,-2.2044,-2.2044,-2.2044,0,0,-2.1838,-2.1849,-2.1866,-2.1896,-2.1907,-2.1934,-2.1906,-2.1936,-2.1955,-2.1936,-2.1973,-2.1979,-2.1995,-2.2038,-2.2058,-2.2045,-2.2127,-2.2101,-2.2105,-2.2107,-2.2131,-2.214,-2.2147,-2.2046,-2.2046,-2.2045,0,0,-2.1897,-2.1908,-2.1943,-2.1954,-2.1971,-2.1973,-2.1981,-2.1995,-2.1998,-2.2035,-2.2021,-2.2044,-2.2085,-2.2096,-2.2107,-2.217,-2.2158,-2.2177,-2.221,-2.2235,-2.2242,-2.2248,-2.227,-2.2278,-2.2182,-2.2182,-2.2182,0,-2.1926,-2.1966,-2.1962,-2.1992,-2.2006,-2.199,-2.2024,-2.2035,-2.2058,-2.2068,-2.2053,-2.2103,-2.2113,-2.2158,-2.2173,-2.2183,-2.2192,-2.2175,-2.2241,-2.2248,-2.2253,-2.2274,-2.2282,-2.2184,-2.2184,-2.2183,-2.2183,0,-2.2,-2.2028,-2.2054,-2.2077,-2.2093,-2.2125,-2.2125,-2.2142,-2.2136,-2.2139,-2.2176,-2.2187,-2.2211,-2.2221,-2.2216,-2.2266,-2.2257,-2.2242,-2.2216,-2.2264,-2.2283,-2.2291,-2.2187,-2.2186,-2.2186,-2.2185,0,0,-2.2079,-2.2099,-2.2108,-2.2118,-2.2135,-2.2156,-2.2187,-2.221,-2.2225,-2.2241,-2.2266,-2.2301,-2.2286,-2.2299,-2.2295,-2.2316,-2.2364,-2.2298,-2.2299,-2.231,-2.2419,-2.243,-2.2439,-2.2356,-2.2358,-2.2359,-2.2417,0,-2.2138,-2.2193,-2.219,-2.2241,-2.2266,-2.2251,-2.2278,-2.2291,-2.2294,-2.2315,-2.2318,-2.2342,-2.2322,-2.2329,-2.235,-2.2354,-2.2386,-2.235,-2.2379,-2.238,-2.2376,-2.2449,-2.2461,-2.2516,-2.2425,-2.2426,-2.2427,0,-2.2215,-2.2234,-2.2288,-2.23,-2.2311,-2.2335,-2.2356,-2.2376,-2.239,-2.2391,-2.2405,-2.2397,-2.2427,-2.24,-2.2441,-2.2417,-2.2429,-2.2432,-2.2434,-2.2437,-2.2407,-2.2453,-2.2534,-2.2542,-2.2439,-2.2438,-2.2437,0,-2.2266,-2.2305,-2.2342,-2.2351,-2.2367,-2.2384,-2.2392,-2.2404,-2.2418,-2.2436,-2.2445,-2.2466,-2.2477,-2.2493,-2.249,-2.2471,-2.2532,-2.2505,-2.2533,-2.2533,-2.2547,-2.2546,-2.2629,-2.2555,-2.2555,-2.2554,-2.2554,0,-2.2333,-2.2366,-2.2366,-2.2388,-2.2425,-2.242,-2.2456,-2.2461,-2.2473,-2.2495,-2.2484,-2.2505,-2.2501,-2.2522,-2.252,-2.2554,-2.2559,-2.256,-2.2559,-2.2561,-2.2561,-2.2569,-2.2565,-2.2557,-2.2556,-2.2556,-2.2555,0,-2.2397,-2.2398,-2.2437,-2.2448,-2.2452,-2.2478,-2.2488,-2.2509,-2.2511,-2.254,-2.2546,-2.2549,-2.2573,-2.2572,-2.26,-2.2598,-2.264,-2.2635,-2.2636,-2.2635,-2.2662,-2.266,-2.2754,-2.2765,-2.2683,-2.2684,-2.2685,0,-2.2439,-2.2464,-2.2478,-2.2493,-2.2502,-2.2525,-2.2539,-2.2536,-2.2551,-2.2568,-2.2587,-2.261,-2.2628,-2.2668,-2.2672,-2.2692,-2.2687,-2.2719,-2.269,-2.2691,-2.2687,-2.2686,-2.2688,-2.2724,-2.2725,-2.2726,-2.2727,0,-2.2514,-2.2513,-2.2534,-2.2555,-2.2572,-2.2589,-2.2604,-2.2616,-2.2613,-2.2631,-2.2656,-2.267,-2.2698,-2.2721,-2.2741,-2.2747,-2.2736,-2.2736,-2.2743,-2.2745,-2.2744,-2.2745,-2.2651,-2.2733,-2.2733,-2.2732,-2.2732,-2.2732,-2.2568,-2.2589,-2.2602,-2.2626,-2.2637,-2.2651,-2.2671,-2.2675,-2.2696,-2.2719,-2.2715,-2.2743,-2.2755,-2.278,-2.2789,-2.281,-2.2799,-2.281,-2.2812,-2.2815,-2.2818,-2.2741,-2.2813,-2.2813,-2.2813,-2.2813,-2.2813,0,-2.2641,-2.2649,-2.2671,-2.2692,-2.271,-2.2699,-2.2715,-2.2731,-2.2755,-2.2768,-2.2786,-2.2814,-2.2836,-2.2842,-2.2863,-2.2879,-2.2874,-2.2884,-2.2883,-2.2884,-2.2827,-2.2818,-2.2887,-2.2887,-2.2887,-2.2887,-2.2887,-2.2887,-2.2682,-2.2717,-2.2718,-2.2758,-2.2765,-2.2793,-2.2803,-2.2815,-2.2825,-2.2857,-2.2876,-2.2879,-2.2889,-2.291,-2.293,-2.2931,-2.2939,-2.2951,-2.295,-2.2896,-2.2888,-2.2881,-2.2873,-2.2953,-2.2953,-2.3005,-2.3006,-2.3006]}]]